Simultaneous Nadir Overpasses (SNOs) Predictions

Prediction of SNOs between METOP-A and TERRA Satellite Orbit:

Table of predicted SNOs for the next 14.0 days since TLE Epoch: 7/14/2018
Index Date (METOP-A) Time (METOP-A) Lat,Lon (METOP-A) SZA (METOP-A ) Date (TERRA) Time (TERRA) Lat,Lon (TERRA) SZA (TERRA ) Distance(km) Time Diff (sec)
1 07/15/2018 22:33:09 -81.42, 70.95 117.06 07/15/2018 22:33:58 -81.41, 70.98 117.04 0.64 49
2 07/15/2018 23:23:49 81.42,-121.36 62.99 07/15/2018 23:23:24 81.42,-121.32 62.98 0.67 25
3 07/18/2018 18:07:26 -81.42, 137.32 116.60 07/18/2018 18:08:13 -81.41, 137.36 116.57 1.05 47
4 07/18/2018 18:58:06 81.42, -55.04 63.45 07/18/2018 18:57:39 81.41, -54.95 63.44 1.50 27
5 07/21/2018 13:41:42 -81.42,-155.93 116.04 07/21/2018 13:42:27 -81.43,-155.93 116.02 0.65 45
6 07/21/2018 14:32:22 81.42, 11.67 64.00 07/21/2018 14:31:53 81.43, 11.74 64.00 1.38 29
7 07/24/2018 09:15:58 -81.42, -89.59 115.49 07/24/2018 09:16:41 -81.42, -89.68 115.48 1.47 43
8 07/24/2018 10:06:38 81.42, 77.97 64.55 07/24/2018 10:06:07 81.42, 77.98 64.53 0.35 31
9 07/27/2018 04:50:15 -81.42, -23.27 114.89 07/27/2018 04:50:55 -81.42, -23.10 114.85 2.69 40




NCC Satellite Simultaneous Nadir Overpasses (SNOs) Prediction Service
